Flag for Germany Weather past 2 weeks in Bad Nauheim, Hesse, Germany

Now
59 °F

Overcast.


Feels Like: 58 °F
Forecast: 45 / 58 °F
Wind: 6 mph from Northwest

Location: Giessen

Current Time: May 25, 2015 at 5:50:38 PM

Latest Report: May 25, 2015 at 5:00 PM


Visibility: 19 mi

Pressure: 29.93 "Hg

Humidity: 73%

Dew point: 50 °F

Location of Bad NauheimLocation

Historic Weather in Bad Nauheim — Graph

°F

Bad Nauheim temperature yesterday

Maximum temperature yesterday: 69 °F (at 3:00 PM)
Minimum temperature yesterday: 52 °F (at 5:00 AM)
Average temperature yesterday: 59 °F

Past Weeks' High & Low Weather Summary

 TemperatureHumidityPressure
High81 °F (May 12, 3:00 PM)97% (May 25, 4:00 AM)30.36 "Hg (May 25, 4:00 AM)
Low37 °F (May 21, 6:00 AM)31% (May 18, 6:00 PM)29.67 "Hg (May 18, 8:00 PM)
Average56 °F64%30.07 "Hg
* Reported May 10 4:00 PM — May 25 4:00 PM, Bad Nauheim, Weather by CustomWeather, © 2015

Note: Actual official high and low records may vary slightly from our data, if they occured in-between our weather recording intervals... More about our weather records

Advertising

Bad Nauheim weather history for previous 24 hours

 ConditionsComfort  
Time TempWeatherWind HumidityBarometerVisibility
4:00 PM
Mon, May 25
60 °FOvercast.5 mph75%29.93 "Hg16 mi
3:00 PM56 °FLight rain. Low clouds.5 mph87%29.95 "Hg9 mi
2:00 PM61 °FLight rain. Overcast.6 mph62%29.94 "Hg25 mi
1:00 PM61 °FOvercast.3 mph55%29.95 "Hg25 mi
12:00 PM60 °FOvercast.5 mph64%29.96 "Hg22 mi
11:00 AM62 °FOvercast.2 mph62%29.96 "Hg19 mi
10:00 AM57 °FOvercast.3 mph81%29.98 "Hg9 mi
9:00 AM57 °FOvercast.2 mph84%29.98 "Hg9 mi
8:00 AM54 °FOvercast.1 mph89%29.99 "Hg7 mi
7:00 AM51 °FFog.1 mph94%30.00 "Hg4 mi
6:00 AM49 °FOvercast.1 mph96%30.00 "Hg2 mi
5:00 AM53 °FFog.1 mph95%30.00 "Hg4 mi
4:00 AM53 °FFog.2 mph97%30.00 "Hg2 mi
3:00 AM55 °FFog.1 mph94%30.01 "Hg4 mi
2:00 AM56 °FOvercast.3 mph91%30.01 "Hg6 mi
1:00 AM57 °FLight rain. Low clouds.3 mph93%30.02 "Hg4 mi
12:00 AM57 °FLight rain. Overcast.2 mph89%30.03 "Hg6 mi
11:00 PM
Sun, May 24
57 °FFog.2 mph95%30.03 "Hg4 mi
10:00 PM58 °FLow clouds.2 mph87%30.02 "Hg8 mi
9:00 PM61 °FOvercast.1 mph76%30.01 "Hg14 mi
8:00 PM64 °FOvercast.1 mph61%30.01 "Hg14 mi
7:00 PM66 °FOvercast.1 mph60%30.01 "Hg19 mi
6:00 PM67 °FOvercast.1 mph57%30.02 "Hg19 mi
5:00 PM65 °FOvercast.3 mph59%30.03 "Hg22 mi
Weather by CustomWeather, © 2015

See weather overviewHow to use our weather pages